Погода в Макате

Казахстан     47°38′52″N   53°20′33″E
темп.,
°C
ветер,
м/с
пор.,
м/с
влажн.,
%
обл.,
%
осадки,
мм/ч
давл.,
гПа
погр.,
м
5 августа, чт
чт523:00+34юв5111884 0.0 1010203
02:00+31ю51024100 0.0 1010179
05:00+30юз462311 0.0 101080
08:00+32юз3522100 0.0 1010151
11:00+37з4512100 0.0 1010722
14:00+41зюз6710100 0.0 10092015
17:00+41з791059 0.0 10084704
20:00+39зсз57136 0.0 1007480
6 августа, пт
пт623:00+34ссз71229100 0.0 1009527
02:00+30с6113297 0.0 1009345
05:00+28с354017 0.2 1010120
08:00+29ссз6733100 0.0 1010378
11:00+33с77234 0.0 10111428
14:00+35с66174 0.0 10102197
17:00+36с661410 0.0 10092621
20:00+34с66161 0.0 10091617
7 августа, сб
сб723:00+30с510200 0.0 1010200
02:00+28ссв410270 0.0 1010183
05:00+26св47324 0.0 1011114
08:00+28всв58370 0.0 1012300
11:00+33всв45230 0.0 10121983
14:00+36св55160 0.0 10112450
17:00+37всв43150 0.0 10112768
20:00+36всв55160 0.0 1011926
8 августа, вс
вс823:00+31всв511185 0.0 1012206
02:00+28в511207 0.0 1013211
05:00+26в511245 0.0 1014201
08:00+29вюв712212 0.0 1015406
11:00+35вюв771416 0.0 10151394
14:00+38вюв651160 0.0 10142323
17:00+39вюв55103 0.0 10132629
20:00+37вюв56117 0.0 1013208
9 августа, пн
пн923:00+32вюв61115100 0.0 1013202
02:00+30юв5131845 0.0 1014255
05:00+28вюв5132122 0.0 1014240
08:00+30юв7132180 0.0 1015404
11:00+36ююв91013100 0.0 10151111
14:00+39ююв9811100 0.0 10141844
17:00+40ююв881157 0.0 10132883
20:00+37юв71013100 0.0 1012530